Orbital Elements at Epoch 2459000.5 (2020-May-31.0) TDB
Reference: JPL 9 (heliocentric ecliptic J2000)
Element | Value | Uncertainty (1-sigma) | Units |
e | .05636968849542318 | 5.8816e-08 | |
a | 2.204181815573967 | 1.5846e-08 | au |
q | 2.079932773242786 | 1.2709e-07 | au |
i | 5.195870035513344 | 7.8383e-06 | deg |
node | 115.496672070892 | 6.716e-05 | deg |
peri | 336.4369211596281 | 0.00010416 | deg |
M | 167.8089851682117 | 7.7585e-05 | deg |
tp | 2458443.337010675416 (2018-Nov-20.83701068) | 0.00025648 | TDB |
period | 1195.279716135523 3.27 | 1.2889e-05 3.529e-08 | d yr |
n | .3011847311890488 | 3.2478e-09 | deg/d |
Q | 2.328430857905148 | 1.6739e-08 | au |
|
| | Orbit Determination Parameters
Additional Information
|